Location: Demmingen
(48.6757°N, 10.4375°E)
Time: 18:53:04
(UTC+00:00)

Cosmos 2333 Rocket - Pass Details

Date: 23 May 2024
Orbit: 838 x 863 km, 70.8° (Epoch: 23 June)

Event Time Altitude Azimuth Distance (km) Brightness Sun altitude
Rises 00:46:15 0° 334° (NNW) 3,423 6.0 -17.8°
Reaches altitude 10° 00:48:52 10° 342° (NNW) 2,488 5.3 -17.6°
Maximum altitude 00:54:15 41° 52° (NE) 1,224 3.5 -17.2°
Drops below altitude 10° 00:59:39 10° 122° (ESE) 2,490 4.6 -16.9°
Sets 01:02:15 0° 129° (SE) 3,426 5.2 -16.7°
